TimeHST,TemperatureF,Dew PointF,Humidity,Sea Level PressureIn,VisibilityMPH,Wind Direction,Wind SpeedMPH,Gust SpeedMPH,PrecipitationIn,Events,Conditions,WindDirDegrees,DateUTC
12:53 AM,71.1,66.0,84,30.02,10.0,NNW,3.5,-,N/A,,Partly Cloudy,330,2014-01-18 10:53:00
1:53 AM,70.0,64.9,84,30.01,10.0,Calm,Calm,-,N/A,,Partly Cloudy,0,2014-01-18 11:53:00
2:53 AM,69.1,64.9,87,30.00,10.0,Calm,Calm,-,N/A,,Partly Cloudy,0,2014-01-18 12:53:00
3:53 AM,68.0,64.0,87,30.00,10.0,Calm,Calm,-,N/A,,Partly Cloudy,0,2014-01-18 13:53:00
4:53 AM,68.0,64.0,87,30.00,10.0,Calm,Calm,-,N/A,,Partly Cloudy,0,2014-01-18 14:53:00
5:53 AM,66.9,63.0,87,30.01,10.0,NNW,3.5,-,N/A,,Partly Cloudy,340,2014-01-18 15:53:00
6:53 AM,66.9,63.0,87,30.02,10.0,North,3.5,-,N/A,,Partly Cloudy,350,2014-01-18 16:53:00
7:53 AM,69.1,63.0,81,30.04,10.0,Calm,Calm,-,N/A,,Partly Cloudy,0,2014-01-18 17:53:00
8:53 AM,72.0,64.0,76,30.05,10.0,Variable,4.6,-,N/A,,Partly Cloudy,0,2014-01-18 18:53:00
9:53 AM,75.9,66.0,71,30.06,10.0,Calm,Calm,-,N/A,,Scattered Clouds,0,2014-01-18 19:53:00
10:53 AM,77.0,64.9,66,30.04,10.0,South,6.9,-,N/A,,Scattered Clouds,190,2014-01-18 20:53:00
11:53 AM,78.1,63.0,60,30.02,10.0,South,6.9,-,N/A,,Scattered Clouds,180,2014-01-18 21:53:00
12:53 PM,78.1,64.0,62,29.99,10.0,SW,8.1,-,N/A,,Scattered Clouds,220,2014-01-18 22:53:00
1:53 PM,78.1,66.0,66,29.96,10.0,SSW,10.4,-,N/A,,Scattered Clouds,200,2014-01-18 23:53:00
2:53 PM,78.1,66.0,66,29.94,10.0,SW,9.2,-,N/A,,Scattered Clouds,220,2014-01-19 00:53:00
3:53 PM,78.1,66.0,66,29.95,10.0,SW,9.2,-,N/A,,Scattered Clouds,220,2014-01-19 01:53:00
4:53 PM,77.0,66.0,69,29.96,10.0,SW,9.2,-,N/A,,Scattered Clouds,230,2014-01-19 02:53:00
5:53 PM,77.0,64.9,66,29.97,10.0,SSW,4.6,-,N/A,,Scattered Clouds,210,2014-01-19 03:53:00
6:53 PM,75.0,66.0,73,29.99,10.0,NNW,11.5,-,N/A,,Mostly Cloudy,340,2014-01-19 04:53:00
7:53 PM,75.0,64.9,71,30.00,10.0,NNW,8.1,-,N/A,,Partly Cloudy,340,2014-01-19 05:53:00
8:53 PM,73.9,64.9,73,30.00,10.0,NW,5.8,-,N/A,,Partly Cloudy,310,2014-01-19 06:53:00
9:53 PM,72.0,64.9,78,30.00,10.0,Calm,Calm,-,N/A,,Partly Cloudy,0,2014-01-19 07:53:00
10:53 PM,70.0,64.9,84,29.96,10.0,Calm,Calm,-,N/A,,Partly Cloudy,0,2014-01-19 08:53:00
11:53 PM,69.1,64.0,84,29.94,10.0,Calm,Calm,-,N/A,,Partly Cloudy,0,2014-01-19 09:53:00